TimeCDT,TemperatureF,Dew PointF,Humidity,Sea Level PressureIn,VisibilityMPH,Wind Direction,Wind SpeedMPH,Gust SpeedMPH,PrecipitationIn,Events,Conditions,WindDirDegrees,DateUTC
12:15 AM,17.6,14.4,87,30.02,10.0,NW,5.8,-,N/A,,Clear,310,2013-03-12 05:15:00
12:35 AM,15.3,12.7,90,30.02,10.0,NW,4.6,-,N/A,,Clear,320,2013-03-12 05:35:00
12:55 AM,16.5,14.4,91,30.02,10.0,NNW,5.8,-,N/A,,Clear,330,2013-03-12 05:55:00
1:15 AM,16.9,13.6,87,30.02,10.0,NW,5.8,-,N/A,,Clear,320,2013-03-12 06:15:00
1:35 AM,19.2,17.2,92,30.03,10.0,NW,6.9,-,N/A,,Clear,320,2013-03-12 06:35:00
1:55 AM,22.6,20.1,90,30.05,10.0,WNW,5.8,-,N/A,,Clear,300,2013-03-12 06:55:00
2:15 AM,26.8,21.9,82,30.05,10.0,WNW,5.8,-,N/A,,Clear,300,2013-03-12 07:15:00
2:35 AM,24.8,20.7,84,30.05,10.0,West,5.8,-,N/A,,Clear,270,2013-03-12 07:35:00
2:55 AM,23.2,19.4,85,30.05,10.0,West,4.6,-,N/A,,Clear,270,2013-03-12 07:55:00
3:15 AM,24.4,21.7,89,30.05,10.0,NW,3.5,-,N/A,,Clear,310,2013-03-12 08:15:00
3:35 AM,23.7,21.0,89,30.06,10.0,WSW,4.6,-,N/A,,Clear,250,2013-03-12 08:35:00
3:55 AM,23.7,20.7,88,30.04,10.0,West,6.9,-,N/A,,Clear,260,2013-03-12 08:55:00
4:15 AM,25.7,22.1,86,30.04,10.0,West,5.8,-,N/A,,Clear,270,2013-03-12 09:15:00
4:35 AM,25.7,21.6,84,30.04,10.0,West,10.4,-,N/A,,Clear,270,2013-03-12 09:35:00
4:55 AM,26.8,22.1,83,30.03,10.0,West,10.4,-,N/A,,Scattered Clouds,260,2013-03-12 09:55:00
5:15 AM,26.4,21.9,83,30.04,10.0,West,13.8,-,N/A,,Clear,260,2013-03-12 10:15:00
5:35 AM,27.5,22.1,80,30.04,10.0,West,15.0,-,N/A,,Clear,270,2013-03-12 10:35:00
5:55 AM,29.3,22.8,77,30.05,10.0,West,18.4,-,N/A,,Clear,280,2013-03-12 10:55:00
6:15 AM,29.3,22.6,76,30.07,10.0,West,13.8,-,N/A,,Scattered Clouds,280,2013-03-12 11:15:00
6:35 AM,30.6,23.0,74,30.07,10.0,WNW,15.0,-,N/A,,Clear,290,2013-03-12 11:35:00
6:55 AM,31.1,23.0,72,30.07,10.0,WNW,15.0,-,N/A,,Clear,290,2013-03-12 11:55:00
7:15 AM,30.4,22.8,73,30.08,10.0,WNW,15.0,-,N/A,,Clear,290,2013-03-12 12:15:00
7:35 AM,32.0,22.6,68,30.09,10.0,WNW,25.3,32.2,N/A,,Clear,300,2013-03-12 12:35:00
7:55 AM,31.6,22.1,68,30.10,7.0,NW,23.0,33.4,N/A,,Clear,310,2013-03-12 12:55:00
8:15 AM,30.2,21.2,69,30.10,10.0,NW,19.6,25.3,N/A,,Clear,310,2013-03-12 13:15:00
8:55 AM,30.9,21.2,67,30.12,10.0,WNW,18.4,24.2,N/A,,Scattered Clouds,300,2013-03-12 13:55:00
9:15 AM,31.8,21.9,67,30.13,10.0,WNW,18.4,26.5,N/A,,Overcast,300,2013-03-12 14:15:00
9:35 AM,32.0,22.3,67,30.14,10.0,WNW,20.7,25.3,N/A,,Mostly Cloudy,300,2013-03-12 14:35:00
9:55 AM,32.0,22.1,67,30.14,10.0,WNW,25.3,28.8,N/A,,Scattered Clouds,300,2013-03-12 14:55:00
10:15 AM,32.0,22.6,68,30.15,7.0,NW,24.2,33.4,N/A,,Clear,310,2013-03-12 15:15:00
10:35 AM,32.0,23.0,69,30.16,10.0,NW,24.2,32.2,N/A,,Clear,310,2013-03-12 15:35:00
10:55 AM,32.0,22.8,69,30.17,10.0,WNW,21.9,28.8,N/A,,Clear,300,2013-03-12 15:55:00
11:15 AM,32.2,23.0,69,30.18,10.0,NW,21.9,29.9,N/A,,Clear,310,2013-03-12 16:15:00
11:55 AM,32.9,23.5,68,30.19,10.0,NW,18.4,26.5,N/A,,Mostly Cloudy,310,2013-03-12 16:55:00
12:15 PM,32.5,23.4,69,30.20,10.0,WNW,23.0,29.9,N/A,,Overcast,300,2013-03-12 17:15:00
12:35 PM,32.7,23.2,68,30.21,10.0,NW,23.0,28.8,N/A,,Overcast,310,2013-03-12 17:35:00
12:55 PM,33.4,23.2,66,30.21,10.0,WNW,21.9,27.6,N/A,,Overcast,300,2013-03-12 17:55:00
1:15 PM,33.3,23.4,67,30.22,10.0,NW,19.6,26.5,N/A,,Overcast,310,2013-03-12 18:15:00
1:35 PM,33.3,23.0,66,30.22,10.0,NW,24.2,29.9,N/A,,Overcast,310,2013-03-12 18:35:00
1:55 PM,33.1,22.8,66,30.22,10.0,NW,23.0,27.6,N/A,,Overcast,320,2013-03-12 18:55:00
2:15 PM,33.1,22.6,66,30.22,10.0,NW,20.7,28.8,N/A,,Overcast,320,2013-03-12 19:15:00
2:35 PM,33.3,22.5,65,30.22,10.0,NNW,18.4,27.6,N/A,,Overcast,330,2013-03-12 19:35:00
2:55 PM,33.1,22.6,66,30.22,10.0,NNW,17.3,24.2,N/A,,Overcast,330,2013-03-12 19:55:00
3:15 PM,33.3,23.2,67,30.22,10.0,NW,18.4,23.0,N/A,,Overcast,320,2013-03-12 20:15:00
3:35 PM,33.1,22.8,66,30.23,10.0,NW,13.8,20.7,N/A,,Overcast,320,2013-03-12 20:35:00
3:55 PM,32.9,22.3,65,30.24,10.0,NW,16.1,21.9,N/A,,Overcast,320,2013-03-12 20:55:00
4:15 PM,32.9,22.5,65,30.24,10.0,NNW,15.0,20.7,N/A,,Overcast,330,2013-03-12 21:15:00
4:35 PM,32.9,23.0,67,30.24,10.0,NNW,15.0,-,N/A,,Overcast,330,2013-03-12 21:35:00
4:55 PM,32.5,22.6,67,30.25,10.0,NW,16.1,21.9,N/A,,Overcast,320,2013-03-12 21:55:00
5:15 PM,32.4,22.3,66,30.25,10.0,NW,16.1,20.7,N/A,,Overcast,320,2013-03-12 22:15:00
5:35 PM,32.2,22.1,66,30.26,10.0,NW,12.7,23.0,N/A,,Overcast,320,2013-03-12 22:35:00
5:55 PM,32.0,22.8,69,30.27,10.0,NNW,11.5,17.3,N/A,,Overcast,330,2013-03-12 22:55:00
6:15 PM,32.0,21.9,66,30.27,10.0,NNW,12.7,-,N/A,,Overcast,330,2013-03-12 23:15:00
6:35 PM,31.6,22.1,68,30.27,10.0,NNW,15.0,20.7,N/A,,Overcast,330,2013-03-12 23:35:00
6:55 PM,31.1,21.9,69,30.27,10.0,NNW,13.8,-,N/A,,Overcast,330,2013-03-12 23:55:00
7:15 PM,30.7,21.9,70,30.27,10.0,NW,10.4,-,N/A,,Overcast,320,2013-03-13 00:15:00
7:35 PM,30.0,21.6,71,30.28,10.0,NNW,11.5,-,N/A,,Overcast,330,2013-03-13 00:35:00
7:55 PM,29.3,20.5,70,30.28,10.0,NW,10.4,-,N/A,,Scattered Clouds,320,2013-03-13 00:55:00
8:15 PM,27.7,20.1,73,30.29,10.0,NW,9.2,-,N/A,,Clear,320,2013-03-13 01:15:00
8:35 PM,27.5,20.1,74,30.30,10.0,NW,8.1,-,N/A,,Scattered Clouds,320,2013-03-13 01:35:00
8:55 PM,26.6,19.4,74,30.30,10.0,NW,8.1,-,N/A,,Clear,320,2013-03-13 01:55:00
9:15 PM,25.7,19.0,76,30.31,10.0,NW,6.9,-,N/A,,Clear,310,2013-03-13 02:15:00
9:35 PM,25.2,19.0,78,30.31,10.0,NW,6.9,-,N/A,,Clear,310,2013-03-13 02:35:00
9:55 PM,24.4,18.9,79,30.31,10.0,NW,6.9,-,N/A,,Clear,310,2013-03-13 02:55:00
10:15 PM,23.7,18.1,79,30.31,10.0,NW,8.1,-,N/A,,Clear,310,2013-03-13 03:15:00
10:35 PM,22.8,17.6,80,30.31,10.0,NW,6.9,-,N/A,,Clear,310,2013-03-13 03:35:00
10:55 PM,23.4,18.3,81,30.32,10.0,NW,5.8,-,N/A,,Clear,320,2013-03-13 03:55:00
11:15 PM,21.9,17.4,83,30.33,10.0,NW,5.8,-,N/A,,Clear,310,2013-03-13 04:15:00
11:35 PM,23.4,18.9,83,30.33,10.0,NW,5.8,-,N/A,,Clear,310,2013-03-13 04:35:00
11:55 PM,22.8,18.1,82,30.34,10.0,NW,5.8,-,N/A,,Clear,320,2013-03-13 04:55:00